Time,TemperatureF,DewpointF,PressureIn,WindDirection,WindDirectionDegrees,WindSpeedMPH,WindSpeedGustMPH,Humidity,HourlyPrecipIn,Conditions,Clouds,dailyrainin,SoftwareType,DateUTC
2013-04-09 00:00:00,46.5,43.1,30.07,ESE,113,1.0,1.0,88,0.00,,,0.00,Wunderground v.1.15,2013-04-09 04:00:00,
2013-04-09 00:02:00,46.6,42.9,30.07,East,84,1.0,3.0,87,0.00,,,0.00,Wunderground v.1.15,2013-04-09 04:02:00,
2013-04-09 00:03:00,46.6,42.9,30.07,North,359,1.0,3.0,87,0.00,,,0.00,Wunderground v.1.15,2013-04-09 04:03:00,
2013-04-09 00:04:00,46.6,42.9,30.07,ENE,72,1.0,3.0,87,0.00,,,0.00,Wunderground v.1.15,2013-04-09 04:04:00,
2013-04-09 00:10:00,46.7,43.0,30.08,SSW,198,1.0,1.0,87,0.00,,,0.00,Wunderground v.1.15,2013-04-09 04:10:00,
2013-04-09 00:16:00,46.6,42.9,30.07,SE,131,1.0,3.0,87,0.00,,,0.00,Wunderground v.1.15,2013-04-09 04:16:00,
2013-04-09 00:22:00,46.6,43.2,30.07,SSE,163,1.0,3.0,88,0.00,,,0.00,Wunderground v.1.15,2013-04-09 04:22:00,
2013-04-09 00:27:00,46.6,43.2,30.08,South,173,1.0,6.0,88,0.00,,,0.00,Wunderground v.1.15,2013-04-09 04:27:00,
2013-04-09 00:32:00,46.6,43.2,30.08,SSE,162,1.0,3.0,88,0.00,,,0.00,Wunderground v.1.15,2013-04-09 04:32:00,
2013-04-09 00:37:00,46.6,43.2,30.07,ENE,70,1.0,3.0,88,0.00,,,0.00,Wunderground v.1.15,2013-04-09 04:37:00,
2013-04-09 00:43:00,46.6,43.2,30.07,South,187,1.0,3.0,88,0.00,,,0.00,Wunderground v.1.15,2013-04-09 04:43:00,
2013-04-09 00:48:00,46.6,43.2,30.07,ESE,107,1.0,3.0,88,0.00,,,0.00,Wunderground v.1.15,2013-04-09 04:48:00,
2013-04-09 00:53:00,46.5,43.1,30.07,NE,54,1.0,3.0,88,0.00,,,0.00,Wunderground v.1.15,2013-04-09 04:53:00,
2013-04-09 00:59:00,46.5,43.4,30.07,SSW,204,1.0,3.0,89,0.00,,,0.00,Wunderground v.1.15,2013-04-09 04:59:00,
2013-04-09 01:04:00,46.4,43.3,30.06,SSW,211,1.0,3.0,89,0.00,,,0.00,Wunderground v.1.15,2013-04-09 05:04:00,
2013-04-09 01:10:00,46.4,43.3,30.06,SE,124,0.0,3.0,89,0.00,,,0.00,Wunderground v.1.15,2013-04-09 05:10:00,
2013-04-09 01:15:00,46.4,43.3,30.05,ESE,120,1.0,3.0,89,0.00,,,0.00,Wunderground v.1.15,2013-04-09 05:15:00,
2013-04-09 01:20:00,46.3,43.2,30.05,SSE,160,1.0,1.0,89,0.00,,,0.00,Wunderground v.1.15,2013-04-09 05:20:00,
2013-04-09 01:25:00,46.3,43.5,30.05,SE,146,0.0,3.0,90,0.00,,,0.00,Wunderground v.1.15,2013-04-09 05:25:00,
2013-04-09 01:31:00,46.3,43.5,30.05,SSE,150,0.0,3.0,90,0.00,,,0.00,Wunderground v.1.15,2013-04-09 05:31:00,
2013-04-09 01:37:00,46.2,43.4,30.04,SW,214,0.0,3.0,90,0.00,,,0.00,Wunderground v.1.15,2013-04-09 05:37:00,
2013-04-09 01:42:00,46.3,43.5,30.04,SW,221,0.0,3.0,90,0.00,,,0.00,Wunderground v.1.15,2013-04-09 05:42:00,
2013-04-09 01:48:00,46.3,43.5,30.04,SSW,193,1.0,3.0,90,0.00,,,0.00,Wunderground v.1.15,2013-04-09 05:48:00,
2013-04-09 01:53:00,46.4,43.9,30.04,West,262,1.0,3.0,91,0.00,,,0.00,Wunderground v.1.15,2013-04-09 05:53:00,
2013-04-09 01:58:00,46.4,43.9,30.04,SW,232,1.0,4.0,91,0.00,,,0.00,Wunderground v.1.15,2013-04-09 05:58:00,
2013-04-09 02:03:00,46.4,43.9,30.03,SE,139,1.0,3.0,91,0.00,,,0.00,Wunderground v.1.15,2013-04-09 06:03:00,
2013-04-09 02:08:00,46.4,43.9,30.02,SSE,162,1.0,3.0,91,0.00,,,0.00,Wunderground v.1.15,2013-04-09 06:08:00,
2013-04-09 02:13:00,46.5,44.0,30.02,SW,221,1.0,3.0,91,0.00,,,0.00,Wunderground v.1.15,2013-04-09 06:13:00,
2013-04-09 02:18:00,46.4,43.9,30.02,SE,142,1.0,3.0,91,0.00,,,0.00,Wunderground v.1.15,2013-04-09 06:18:00,
2013-04-09 02:23:00,46.4,43.9,30.02,SW,236,0.0,3.0,91,0.00,,,0.00,Wunderground v.1.15,2013-04-09 06:23:00,
2013-04-09 02:29:00,46.5,44.0,30.02,SW,214,1.0,4.0,91,0.00,,,0.00,Wunderground v.1.15,2013-04-09 06:29:00,
2013-04-09 02:35:00,46.4,43.9,30.02,SSE,158,1.0,3.0,91,0.00,,,0.00,Wunderground v.1.15,2013-04-09 06:35:00,
2013-04-09 02:41:00,46.4,43.9,30.02,SW,218,1.0,3.0,91,0.00,,,0.00,Wunderground v.1.15,2013-04-09 06:41:00,
2013-04-09 02:47:00,46.4,44.2,30.02,SW,226,1.0,3.0,92,0.00,,,0.00,Wunderground v.1.15,2013-04-09 06:47:00,
2013-04-09 02:52:00,46.4,44.2,30.02,SW,229,0.0,3.0,92,0.00,,,0.00,Wunderground v.1.15,2013-04-09 06:52:00,
2013-04-09 02:58:00,46.6,44.4,30.01,South,174,1.0,5.0,92,0.00,,,0.00,Wunderground v.1.15,2013-04-09 06:58:00,
2013-04-09 03:04:00,46.7,44.5,30.01,WSW,240,1.0,3.0,92,0.00,,,0.00,Wunderground v.1.15,2013-04-09 07:04:00,
2013-04-09 03:10:00,46.8,44.6,30.01,ESE,123,1.0,1.0,92,0.00,,,0.00,Wunderground v.1.15,2013-04-09 07:10:00,
2013-04-09 03:15:00,46.9,44.7,30.00,South,173,1.0,3.0,92,0.00,,,0.00,Wunderground v.1.15,2013-04-09 07:15:00,
2013-04-09 03:20:00,46.9,44.7,29.99,ESE,116,1.0,1.0,92,0.00,,,0.00,Wunderground v.1.15,2013-04-09 07:20:00,
2013-04-09 03:26:00,46.9,44.7,29.99,SE,131,1.0,3.0,92,0.00,,,0.00,Wunderground v.1.15,2013-04-09 07:26:00,
2013-04-09 03:32:00,47.0,44.8,29.99,SSW,205,1.0,3.0,92,0.00,,,0.00,Wunderground v.1.15,2013-04-09 07:32:00,
2013-04-09 03:37:00,47.0,44.8,29.99,South,181,1.0,3.0,92,0.00,,,0.00,Wunderground v.1.15,2013-04-09 07:37:00,
2013-04-09 03:42:00,47.0,45.1,29.99,SSE,152,2.0,3.0,93,0.00,,,0.00,Wunderground v.1.15,2013-04-09 07:42:00,
2013-04-09 03:48:00,47.0,45.1,29.98,SSW,198,2.0,5.0,93,0.00,,,0.00,Wunderground v.1.15,2013-04-09 07:48:00,
2013-04-09 03:53:00,46.9,45.0,29.98,ENE,77,2.0,4.0,93,0.00,,,0.00,Wunderground v.1.15,2013-04-09 07:53:00,
2013-04-09 03:59:00,46.9,45.0,29.98,SSW,205,2.0,4.0,93,0.00,,,0.00,Wunderground v.1.15,2013-04-09 07:59:00,
2013-04-09 04:04:00,46.9,45.3,29.98,WSW,246,2.0,3.0,94,0.00,,,0.00,Wunderground v.1.15,2013-04-09 08:04:00,
2013-04-09 04:09:00,46.9,45.3,29.98,SSW,207,2.0,3.0,94,0.00,,,0.00,Wunderground v.1.15,2013-04-09 08:09:00,
2013-04-09 04:15:00,46.8,45.2,29.97,SSE,149,2.0,4.0,94,0.00,,,0.00,Wunderground v.1.15,2013-04-09 08:15:00,
2013-04-09 04:20:00,46.8,45.2,29.97,SW,229,1.0,3.0,94,0.00,,,0.00,Wunderground v.1.15,2013-04-09 08:20:00,
2013-04-09 04:27:00,46.8,45.2,29.98,West,260,1.0,3.0,94,0.00,,,0.00,Wunderground v.1.15,2013-04-09 08:27:00,
2013-04-09 04:33:00,46.8,45.4,29.98,SW,232,1.0,3.0,95,0.00,,,0.00,Wunderground v.1.15,2013-04-09 08:33:00,
2013-04-09 04:38:00,46.8,45.4,29.97,SSW,211,1.0,3.0,95,0.00,,,0.00,Wunderground v.1.15,2013-04-09 08:38:00,
2013-04-09 04:44:00,46.8,45.4,29.97,SW,217,1.0,3.0,95,0.00,,,0.01,Wunderground v.1.15,2013-04-09 08:44:00,
2013-04-09 04:49:00,46.9,45.5,29.95,SSW,204,1.0,3.0,95,0.29,,,0.05,Wunderground v.1.15,2013-04-09 08:49:00,
2013-04-09 04:55:00,46.9,45.5,29.95,SW,233,3.0,8.0,95,0.10,,,0.06,Wunderground v.1.15,2013-04-09 08:55:00,
2013-04-09 05:01:00,47.1,46.0,29.94,SSW,201,3.0,7.0,96,0.05,,,0.06,Wunderground v.1.15,2013-04-09 09:01:00,
2013-04-09 05:07:00,47.1,46.0,29.93,South,187,4.0,7.0,96,0.00,,,0.06,Wunderground v.1.15,2013-04-09 09:07:00,
2013-04-09 05:12:00,47.2,46.1,29.93,SSW,200,3.0,4.0,96,0.00,,,0.06,Wunderground v.1.15,2013-04-09 09:12:00,
2013-04-09 05:18:00,47.3,46.2,29.93,South,190,3.0,4.0,96,0.00,,,0.06,Wunderground v.1.15,2013-04-09 09:18:00,
2013-04-09 05:25:00,47.5,46.4,29.95,SW,229,2.0,3.0,96,0.00,,,0.06,Wunderground v.1.15,2013-04-09 09:25:00,
2013-04-09 05:32:00,47.5,46.4,29.93,East,83,2.0,3.0,96,0.00,,,0.06,Wunderground v.1.15,2013-04-09 09:32:00,
2013-04-09 05:37:00,47.6,46.5,29.92,SE,131,2.0,4.0,96,0.00,,,0.06,Wunderground v.1.15,2013-04-09 09:37:00,
2013-04-09 05:43:00,47.8,46.7,29.93,SW,217,2.0,3.0,96,0.00,,,0.06,Wunderground v.1.15,2013-04-09 09:43:00,
2013-04-09 05:48:00,47.8,46.7,29.93,SSW,197,3.0,4.0,96,0.00,,,0.06,Wunderground v.1.15,2013-04-09 09:48:00,
2013-04-09 05:53:00,47.9,46.8,29.93,South,187,2.0,3.0,96,0.00,,,0.06,Wunderground v.1.15,2013-04-09 09:53:00,
2013-04-09 05:58:00,48.0,46.9,29.94,SSW,195,1.0,3.0,96,0.00,,,0.06,Wunderground v.1.15,2013-04-09 09:58:00,
2013-04-09 06:04:00,47.9,46.8,29.93,SW,228,2.0,3.0,96,0.00,,,0.06,Wunderground v.1.15,2013-04-09 10:04:00,
2013-04-09 06:10:00,47.9,46.8,29.93,SW,226,2.0,4.0,96,0.00,,,0.06,Wunderground v.1.15,2013-04-09 10:10:00,
2013-04-09 06:16:00,48.0,46.9,29.93,West,274,3.0,4.0,96,0.00,,,0.06,Wunderground v.1.15,2013-04-09 10:16:00,
2013-04-09 06:21:00,47.9,46.8,29.93,West,277,2.0,3.0,96,0.00,,,0.06,Wunderground v.1.15,2013-04-09 10:21:00,
2013-04-09 06:27:00,47.9,46.8,29.94,WSW,239,1.0,3.0,96,0.00,,,0.06,Wunderground v.1.15,2013-04-09 10:27:00,
2013-04-09 06:33:00,47.9,46.8,29.93,SE,142,1.0,3.0,96,0.00,,,0.06,Wunderground v.1.15,2013-04-09 10:33:00,
2013-04-09 06:38:00,48.0,46.9,29.93,SW,229,1.0,3.0,96,0.00,,,0.06,Wunderground v.1.15,2013-04-09 10:38:00,
2013-04-09 06:45:00,48.1,47.0,29.93,WSW,250,1.0,3.0,96,0.00,,,0.06,Wunderground v.1.15,2013-04-09 10:45:00,
2013-04-09 06:51:00,48.1,47.0,29.93,South,177,1.0,2.0,96,0.00,,,0.06,Wunderground v.1.15,2013-04-09 10:51:00,
2013-04-09 06:57:00,48.2,47.4,29.94,WSW,252,1.0,3.0,97,0.00,,,0.06,Wunderground v.1.15,2013-04-09 10:57:00,
2013-04-09 07:03:00,48.3,47.5,29.93,WSW,252,0.0,3.0,97,0.00,,,0.06,Wunderground v.1.15,2013-04-09 11:03:00,
2013-04-09 07:09:00,48.3,47.5,29.94,WSW,252,0.0,3.0,97,0.00,,,0.06,Wunderground v.1.15,2013-04-09 11:09:00,
2013-04-09 07:14:00,48.4,47.6,29.93,WSW,252,0.0,3.0,97,0.00,,,0.06,Wunderground v.1.15,2013-04-09 11:14:00,
2013-04-09 07:19:00,48.4,47.6,29.93,SW,224,0.0,3.0,97,0.00,,,0.06,Wunderground v.1.15,2013-04-09 11:19:00,
2013-04-09 07:25:00,48.5,47.7,29.93,SW,218,0.0,3.0,97,0.00,,,0.06,Wunderground v.1.15,2013-04-09 11:25:00,
2013-04-09 07:31:00,48.5,47.7,29.93,SSW,198,1.0,3.0,97,0.00,,,0.06,Wunderground v.1.15,2013-04-09 11:31:00,
2013-04-09 07:36:00,48.6,47.8,29.93,South,173,1.0,3.0,97,0.00,,,0.06,Wunderground v.1.15,2013-04-09 11:36:00,
2013-04-09 07:42:00,48.8,48.0,29.93,WSW,238,1.0,3.0,97,0.00,,,0.06,Wunderground v.1.15,2013-04-09 11:42:00,
2013-04-09 07:47:00,48.9,48.1,29.93,SW,229,1.0,3.0,97,0.00,,,0.06,Wunderground v.1.15,2013-04-09 11:47:00,
2013-04-09 07:53:00,49.0,48.2,29.93,South,188,1.0,5.0,97,0.00,,,0.06,Wunderground v.1.15,2013-04-09 11:53:00,
2013-04-09 07:58:00,49.1,48.3,29.92,WSW,238,1.0,5.0,97,0.00,,,0.06,Wunderground v.1.15,2013-04-09 11:58:00,
2013-04-09 08:03:00,49.3,48.5,29.92,SW,217,1.0,3.0,97,0.00,,,0.06,Wunderground v.1.15,2013-04-09 12:03:00,
2013-04-09 08:09:00,49.4,48.6,29.92,SW,229,1.0,3.0,97,0.00,,,0.06,Wunderground v.1.15,2013-04-09 12:09:00,
2013-04-09 08:15:00,49.6,48.8,29.92,SSW,198,1.0,3.0,97,0.00,,,0.06,Wunderground v.1.15,2013-04-09 12:15:00,
2013-04-09 08:20:00,49.6,48.8,29.91,WSW,255,2.0,3.0,97,0.00,,,0.06,Wunderground v.1.15,2013-04-09 12:20:00,
2013-04-09 08:26:00,49.7,48.9,29.91,South,179,2.0,3.0,97,0.00,,,0.06,Wunderground v.1.15,2013-04-09 12:26:00,
2013-04-09 08:33:00,49.9,49.1,29.91,West,271,2.0,3.0,97,0.00,,,0.06,Wunderground v.1.15,2013-04-09 12:33:00,
2013-04-09 08:38:00,50.1,49.3,29.91,SW,236,2.0,3.0,97,0.00,,,0.06,Wunderground v.1.15,2013-04-09 12:38:00,
2013-04-09 08:43:00,50.3,49.5,29.91,SW,215,2.0,3.0,97,0.00,,,0.06,Wunderground v.1.15,2013-04-09 12:43:00,
2013-04-09 08:48:00,50.6,49.8,29.91,West,261,1.0,3.0,97,0.00,,,0.06,Wunderground v.1.15,2013-04-09 12:48:00,
2013-04-09 08:54:00,50.8,50.0,29.91,SW,216,1.0,3.0,97,0.00,,,0.06,Wunderground v.1.15,2013-04-09 12:54:00,
2013-04-09 08:59:00,51.2,50.4,29.91,SW,218,2.0,6.0,97,0.00,,,0.06,Wunderground v.1.15,2013-04-09 12:59:00,
2013-04-09 09:04:00,51.4,50.3,29.90,SW,229,2.0,3.0,96,0.00,,,0.06,Wunderground v.1.15,2013-04-09 13:04:00,
2013-04-09 09:10:00,51.9,50.8,29.90,West,261,2.0,2.0,96,0.00,,,0.06,Wunderground v.1.15,2013-04-09 13:10:00,
2013-04-09 09:15:00,52.6,51.5,29.89,SW,218,2.0,3.0,96,0.00,,,0.06,Wunderground v.1.15,2013-04-09 13:15:00,
2013-04-09 09:20:00,53.3,52.2,29.90,SSW,212,2.0,3.0,96,0.00,,,0.06,Wunderground v.1.15,2013-04-09 13:20:00,
2013-04-09 09:26:00,54.0,52.9,29.89,SW,225,2.0,3.0,96,0.00,,,0.06,Wunderground v.1.15,2013-04-09 13:26:00,
2013-04-09 09:31:00,54.8,53.7,29.89,SW,225,2.0,3.0,96,0.00,,,0.06,Wunderground v.1.15,2013-04-09 13:31:00,
2013-04-09 09:37:00,55.8,54.4,29.90,SSW,211,1.0,4.0,95,0.00,,,0.06,Wunderground v.1.15,2013-04-09 13:37:00,
2013-04-09 09:42:00,56.6,54.9,29.89,SW,215,2.0,4.0,94,0.00,,,0.06,Wunderground v.1.15,2013-04-09 13:42:00,
2013-04-09 09:48:00,57.8,55.5,29.89,WSW,239,2.0,4.0,92,0.00,,,0.06,Wunderground v.1.15,2013-04-09 13:48:00,
2013-04-09 09:54:00,58.8,55.3,29.89,SW,226,2.0,3.0,88,0.00,,,0.06,Wunderground v.1.15,2013-04-09 13:54:00,
2013-04-09 10:00:00,59.9,55.7,29.89,WSW,253,2.0,3.0,86,0.00,,,0.06,Wunderground v.1.15,2013-04-09 14:00:00,
2013-04-09 10:05:00,60.5,55.3,29.89,WNW,282,2.0,5.0,83,0.00,,,0.06,Wunderground v.1.15,2013-04-09 14:05:00,
2013-04-09 10:11:00,61.6,56.4,29.89,SSW,200,3.0,6.0,83,0.00,,,0.06,Wunderground v.1.15,2013-04-09 14:11:00,
2013-04-09 10:16:00,62.3,56.0,29.89,WSW,248,3.0,6.0,80,0.00,,,0.06,Wunderground v.1.15,2013-04-09 14:16:00,
2013-04-09 10:21:00,63.1,55.8,29.89,SW,229,3.0,4.0,77,0.00,,,0.06,Wunderground v.1.15,2013-04-09 14:21:00,
2013-04-09 10:27:00,64.1,56.7,29.89,WSW,252,3.0,6.0,77,0.00,,,0.06,Wunderground v.1.15,2013-04-09 14:27:00,
2013-04-09 10:33:00,64.9,56.4,29.88,WSW,250,4.0,5.0,74,0.00,,,0.06,Wunderground v.1.15,2013-04-09 14:33:00,
2013-04-09 10:39:00,65.6,55.9,29.88,SSW,211,4.0,5.0,71,0.00,,,0.06,Wunderground v.1.15,2013-04-09 14:39:00,
2013-04-09 10:44:00,66.6,55.7,29.88,NNW,340,4.0,6.0,68,0.00,,,0.06,Wunderground v.1.15,2013-04-09 14:44:00,
2013-04-09 10:50:00,67.1,55.4,29.88,WSW,257,5.0,5.0,66,0.00,,,0.06,Wunderground v.1.15,2013-04-09 14:50:00,
2013-04-09 10:56:00,68.2,56.8,29.88,West,264,4.0,8.0,67,0.00,,,0.06,Wunderground v.1.15,2013-04-09 14:56:00,
2013-04-09 11:02:00,69.1,56.8,29.88,WSW,242,4.0,6.0,65,0.00,,,0.06,Wunderground v.1.15,2013-04-09 15:02:00,
2013-04-09 11:08:00,69.4,54.9,29.88,WSW,242,6.0,14.0,60,0.00,,,0.06,Wunderground v.1.15,2013-04-09 15:08:00,
2013-04-09 11:13:00,69.7,54.7,29.88,West,262,6.0,11.0,59,0.00,,,0.06,Wunderground v.1.15,2013-04-09 15:13:00,
2013-04-09 11:18:00,70.2,55.7,29.87,WSW,238,6.0,11.0,60,0.00,,,0.06,Wunderground v.1.15,2013-04-09 15:18:00,
2013-04-09 11:23:00,71.0,55.5,29.87,West,278,5.0,6.0,58,0.00,,,0.06,Wunderground v.1.15,2013-04-09 15:23:00,
2013-04-09 11:28:00,71.3,56.2,29.87,West,278,5.0,8.0,59,0.00,,,0.06,Wunderground v.1.15,2013-04-09 15:28:00,
2013-04-09 11:35:00,71.9,56.3,29.86,WSW,257,5.0,6.0,58,0.00,,,0.06,Wunderground v.1.15,2013-04-09 15:35:00,
2013-04-09 11:42:00,72.5,55.4,29.86,SSW,207,5.0,5.0,55,0.00,,,0.06,Wunderground v.1.15,2013-04-09 15:42:00,
2013-04-09 11:47:00,73.3,56.2,29.85,West,280,5.0,6.0,55,0.00,,,0.06,Wunderground v.1.15,2013-04-09 15:47:00,
2013-04-09 11:53:00,74.1,55.9,29.86,West,269,4.0,5.0,53,0.00,,,0.06,Wunderground v.1.15,2013-04-09 15:53:00,
2013-04-09 11:58:00,74.6,51.9,29.86,WSW,257,5.0,14.0,45,0.00,,,0.06,Wunderground v.1.15,2013-04-09 15:58:00,
2013-04-09 12:03:00,74.9,53.3,29.86,ESE,114,6.0,8.0,47,0.00,,,0.06,Wunderground v.1.15,2013-04-09 16:03:00,
2013-04-09 12:10:00,75.4,51.3,29.86,West,278,5.0,5.0,43,0.00,,,0.06,Wunderground v.1.15,2013-04-09 16:10:00,
2013-04-09 12:15:00,75.5,52.7,29.86,West,269,5.0,8.0,45,0.00,,,0.06,Wunderground v.1.15,2013-04-09 16:15:00,
2013-04-09 12:21:00,75.8,52.9,29.86,NNW,329,5.0,8.0,45,0.00,,,0.06,Wunderground v.1.15,2013-04-09 16:21:00,
2013-04-09 12:27:00,76.1,52.6,29.86,WNW,297,5.0,12.0,44,0.00,,,0.06,Wunderground v.1.15,2013-04-09 16:27:00,
2013-04-09 12:32:00,76.0,52.5,29.85,NNW,335,5.0,8.0,44,0.00,,,0.06,Wunderground v.1.15,2013-04-09 16:32:00,
2013-04-09 12:38:00,75.8,52.9,29.85,West,259,5.0,10.0,45,0.00,,,0.06,Wunderground v.1.15,2013-04-09 16:38:00,
2013-04-09 12:43:00,76.4,52.9,29.86,WSW,239,4.0,8.0,44,0.00,,,0.06,Wunderground v.1.15,2013-04-09 16:43:00,
2013-04-09 12:50:00,76.1,52.0,29.85,WSW,249,6.0,9.0,43,0.00,,,0.06,Wunderground v.1.15,2013-04-09 16:50:00,
2013-04-09 12:56:00,76.3,52.8,29.85,NE,49,6.0,9.0,44,0.00,,,0.06,Wunderground v.1.15,2013-04-09 16:56:00,
2013-04-09 13:02:00,76.8,53.2,29.85,WSW,255,5.0,9.0,44,0.00,,,0.06,Wunderground v.1.15,2013-04-09 17:02:00,
2013-04-09 13:08:00,77.0,52.8,29.84,NE,36,6.0,9.0,43,0.00,,,0.06,Wunderground v.1.15,2013-04-09 17:08:00,
2013-04-09 13:14:00,77.0,53.4,29.84,WSW,250,4.0,8.0,44,0.00,,,0.06,Wunderground v.1.15,2013-04-09 17:14:00,
2013-04-09 13:20:00,77.1,53.5,29.85,NE,44,4.0,10.0,44,0.00,,,0.06,Wunderground v.1.15,2013-04-09 17:20:00,
2013-04-09 13:25:00,76.8,53.2,29.86,West,274,5.0,10.0,44,0.00,,,0.06,Wunderground v.1.15,2013-04-09 17:25:00,
2013-04-09 13:30:00,76.2,52.7,29.86,West,277,6.0,6.0,44,0.00,,,0.06,Wunderground v.1.15,2013-04-09 17:30:00,
2013-04-09 13:36:00,76.3,52.2,29.87,West,271,7.0,10.0,43,0.00,,,0.06,Wunderground v.1.15,2013-04-09 17:36:00,
2013-04-09 13:41:00,76.2,53.3,29.87,WSW,250,6.0,8.0,45,0.00,,,0.06,Wunderground v.1.15,2013-04-09 17:41:00,
2013-04-09 13:46:00,76.2,51.4,29.87,WNW,293,5.0,8.0,42,0.00,,,0.06,Wunderground v.1.15,2013-04-09 17:46:00,
2013-04-09 13:51:00,76.1,51.3,29.87,SW,224,5.0,8.0,42,0.00,,,0.06,Wunderground v.1.15,2013-04-09 17:51:00,
2013-04-09 13:57:00,76.3,50.9,29.87,WNW,289,4.0,11.0,41,0.00,,,0.06,Wunderground v.1.15,2013-04-09 17:57:00,
2013-04-09 14:02:00,76.5,51.0,29.87,WNW,297,5.0,12.0,41,0.00,,,0.06,Wunderground v.1.15,2013-04-09 18:02:00,
2013-04-09 14:08:00,76.4,50.3,29.86,NW,310,6.0,12.0,40,0.00,,,0.06,Wunderground v.1.15,2013-04-09 18:08:00,
2013-04-09 14:14:00,76.4,51.0,29.87,West,263,6.0,8.0,41,0.00,,,0.06,Wunderground v.1.15,2013-04-09 18:14:00,
2013-04-09 14:19:00,76.3,49.5,29.87,SW,229,6.0,9.0,39,0.00,,,0.06,Wunderground v.1.15,2013-04-09 18:19:00,
2013-04-09 14:24:00,76.3,48.8,29.87,NNW,330,6.0,11.0,38,0.00,,,0.06,Wunderground v.1.15,2013-04-09 18:24:00,
2013-04-09 14:29:00,76.4,48.2,29.87,WSW,240,7.0,11.0,37,0.00,,,0.06,Wunderground v.1.15,2013-04-09 18:29:00,
2013-04-09 14:35:00,76.5,47.6,29.87,WSW,250,6.0,8.0,36,0.00,,,0.06,Wunderground v.1.15,2013-04-09 18:35:00,
2013-04-09 14:42:00,76.8,48.6,29.87,WSW,243,5.0,8.0,37,0.00,,,0.06,Wunderground v.1.15,2013-04-09 18:42:00,
2013-04-09 14:48:00,76.7,46.2,29.87,NW,308,5.0,9.0,34,0.00,,,0.06,Wunderground v.1.15,2013-04-09 18:48:00,
2013-04-09 14:53:00,76.6,46.1,29.88,WNW,295,6.0,13.0,34,0.00,,,0.06,Wunderground v.1.15,2013-04-09 18:53:00,
2013-04-09 14:59:00,76.5,46.8,29.88,WSW,245,6.0,13.0,35,0.00,,,0.06,Wunderground v.1.15,2013-04-09 18:59:00,
2013-04-09 15:05:00,76.6,44.5,29.88,South,186,6.0,11.0,32,0.00,,,0.06,Wunderground v.1.15,2013-04-09 19:05:00,
2013-04-09 15:11:00,76.3,45.1,29.88,WNW,290,6.0,8.0,33,0.00,,,0.06,Wunderground v.1.15,2013-04-09 19:11:00,
2013-04-09 15:17:00,76.1,44.9,29.88,West,274,7.0,14.0,33,0.00,,,0.06,Wunderground v.1.15,2013-04-09 19:17:00,
2013-04-09 15:22:00,76.1,44.9,29.88,West,262,7.0,11.0,33,0.00,,,0.06,Wunderground v.1.15,2013-04-09 19:22:00,
2013-04-09 15:28:00,76.1,44.1,29.88,SW,215,6.0,11.0,32,0.00,,,0.06,Wunderground v.1.15,2013-04-09 19:28:00,
2013-04-09 15:33:00,76.1,44.1,29.88,NW,320,6.0,9.0,32,0.00,,,0.06,Wunderground v.1.15,2013-04-09 19:33:00,
2013-04-09 15:38:00,76.0,44.8,29.88,NE,38,6.0,10.0,33,0.00,,,0.06,Wunderground v.1.15,2013-04-09 19:38:00,
2013-04-09 15:44:00,75.9,44.7,29.88,SW,218,5.0,8.0,33,0.00,,,0.06,Wunderground v.1.15,2013-04-09 19:44:00,
2013-04-09 15:49:00,76.1,44.9,29.88,SSW,213,5.0,8.0,33,0.00,,,0.06,Wunderground v.1.15,2013-04-09 19:49:00,
2013-04-09 15:55:00,75.7,43.7,29.88,WSW,249,6.0,10.0,32,0.00,,,0.06,Wunderground v.1.15,2013-04-09 19:55:00,
2013-04-09 16:00:00,76.0,44.8,29.88,SW,218,5.0,8.0,33,0.00,,,0.06,Wunderground v.1.15,2013-04-09 20:00:00,
2013-04-09 16:06:00,76.1,43.3,29.88,West,281,4.0,9.0,31,0.00,,,0.06,Wunderground v.1.15,2013-04-09 20:06:00,
2013-04-09 16:12:00,76.0,44.0,29.88,WNW,294,4.0,8.0,32,0.00,,,0.06,Wunderground v.1.15,2013-04-09 20:12:00,
2013-04-09 16:17:00,75.9,43.9,29.88,SW,232,4.0,8.0,32,0.00,,,0.06,Wunderground v.1.15,2013-04-09 20:17:00,
2013-04-09 16:23:00,75.5,44.4,29.89,SW,235,4.0,8.0,33,0.00,,,0.06,Wunderground v.1.15,2013-04-09 20:23:00,
2013-04-09 16:28:00,75.7,44.5,29.89,WNW,294,5.0,8.0,33,0.00,,,0.06,Wunderground v.1.15,2013-04-09 20:28:00,
2013-04-09 16:33:00,75.7,45.3,29.89,SW,228,3.0,8.0,34,0.00,,,0.06,Wunderground v.1.15,2013-04-09 20:33:00,
2013-04-09 16:38:00,75.7,44.5,29.89,North,356,2.0,8.0,33,0.00,,,0.06,Wunderground v.1.15,2013-04-09 20:38:00,
2013-04-09 16:44:00,75.4,45.8,29.89,NNE,29,2.0,8.0,35,0.00,,,0.06,Wunderground v.1.15,2013-04-09 20:44:00,
2013-04-09 16:49:00,75.3,45.0,29.89,WSW,245,3.0,8.0,34,0.00,,,0.06,Wunderground v.1.15,2013-04-09 20:49:00,
2013-04-09 16:54:00,75.3,45.0,29.89,NE,36,3.0,8.0,34,0.00,,,0.06,Wunderground v.1.15,2013-04-09 20:54:00,
2013-04-09 17:00:00,75.4,44.3,29.89,WNW,293,3.0,8.0,33,0.00,,,0.06,Wunderground v.1.15,2013-04-09 21:00:00,
2013-04-09 17:05:00,75.4,43.5,29.89,WNW,287,4.0,8.0,32,0.00,,,0.06,Wunderground v.1.15,2013-04-09 21:05:00,
2013-04-09 17:10:00,74.6,44.4,29.90,ESE,110,3.0,3.0,34,0.00,,,0.06,Wunderground v.1.15,2013-04-09 21:10:00,
2013-04-09 17:15:00,74.0,43.8,29.91,SW,232,3.0,8.0,34,0.00,,,0.06,Wunderground v.1.15,2013-04-09 21:15:00,
2013-04-09 17:22:00,73.7,44.3,29.91,SW,234,2.0,8.0,35,0.00,,,0.06,Wunderground v.1.15,2013-04-09 21:22:00,
2013-04-09 17:27:00,73.9,43.8,29.90,NNW,343,2.0,8.0,34,0.00,,,0.06,Wunderground v.1.15,2013-04-09 21:27:00,
2013-04-09 17:32:00,74.2,44.8,29.90,WNW,291,3.0,8.0,35,0.00,,,0.06,Wunderground v.1.15,2013-04-09 21:32:00,
2013-04-09 17:38:00,73.9,43.8,29.91,NW,305,4.0,8.0,34,0.00,,,0.06,Wunderground v.1.15,2013-04-09 21:38:00,
2013-04-09 17:43:00,73.5,43.4,29.90,North,356,5.0,8.0,34,0.00,,,0.06,Wunderground v.1.15,2013-04-09 21:43:00,
2013-04-09 17:48:00,73.3,43.2,29.91,WSW,257,4.0,8.0,34,0.00,,,0.06,Wunderground v.1.15,2013-04-09 21:48:00,
2013-04-09 17:54:00,73.1,44.5,29.92,NE,49,4.0,8.0,36,0.00,,,0.06,Wunderground v.1.15,2013-04-09 21:54:00,
2013-04-09 18:00:00,72.5,44.0,29.92,NNE,13,2.0,8.0,36,0.00,,,0.06,Wunderground v.1.15,2013-04-09 22:00:00,
2013-04-09 18:07:00,71.4,43.8,29.92,NNE,30,3.0,8.0,37,0.00,,,0.06,Wunderground v.1.15,2013-04-09 22:07:00,
2013-04-09 18:13:00,70.7,43.1,29.92,North,5,3.0,8.0,37,0.00,,,0.06,Wunderground v.1.15,2013-04-09 22:13:00,
2013-04-09 18:18:00,70.5,43.7,29.92,NNE,28,3.0,8.0,38,0.00,,,0.06,Wunderground v.1.15,2013-04-09 22:18:00,
2013-04-09 18:23:00,70.2,44.1,29.92,NNW,335,3.0,8.0,39,0.00,,,0.06,Wunderground v.1.15,2013-04-09 22:23:00,
2013-04-09 18:29:00,69.8,43.7,29.92,ENE,60,2.0,8.0,39,0.00,,,0.06,Wunderground v.1.15,2013-04-09 22:29:00,
2013-04-09 18:35:00,69.4,43.4,29.92,NNW,340,2.0,8.0,39,0.00,,,0.06,Wunderground v.1.15,2013-04-09 22:35:00,
2013-04-09 18:40:00,69.0,43.7,29.93,WNW,293,2.0,2.0,40,0.00,,,0.06,Wunderground v.1.15,2013-04-09 22:40:00,
2013-04-09 18:46:00,68.9,43.6,29.94,North,356,2.0,8.0,40,0.00,,,0.06,Wunderground v.1.15,2013-04-09 22:46:00,
2013-04-09 18:52:00,68.6,43.9,29.94,NE,35,1.0,8.0,41,0.00,,,0.06,Wunderground v.1.15,2013-04-09 22:52:00,
2013-04-09 18:58:00,67.9,43.3,29.94,North,7,1.0,8.0,41,0.00,,,0.06,Wunderground v.1.15,2013-04-09 22:58:00,
2013-04-09 19:04:00,67.2,43.9,29.94,North,9,1.0,8.0,43,0.00,,,0.06,Wunderground v.1.15,2013-04-09 23:04:00,
2013-04-09 19:09:00,66.5,43.3,29.94,NNW,335,1.0,8.0,43,0.00,,,0.06,Wunderground v.1.15,2013-04-09 23:09:00,
2013-04-09 19:14:00,66.0,43.5,29.94,NNW,343,1.0,8.0,44,0.00,,,0.06,Wunderground v.1.15,2013-04-09 23:14:00,
2013-04-09 19:20:00,65.6,43.1,29.94,NNW,348,1.0,1.0,44,0.00,,,0.06,Wunderground v.1.15,2013-04-09 23:20:00,
2013-04-09 19:25:00,65.1,43.2,29.95,North,352,1.0,8.0,45,0.00,,,0.06,Wunderground v.1.15,2013-04-09 23:25:00,
2013-04-09 19:31:00,64.4,44.3,29.95,North,1,0.0,8.0,48,0.00,,,0.06,Wunderground v.1.15,2013-04-09 23:31:00,
2013-04-09 19:37:00,63.3,43.3,29.95,North,356,0.0,8.0,48,0.00,,,0.06,Wunderground v.1.15,2013-04-09 23:37:00,
2013-04-09 19:42:00,62.9,42.9,29.96,ENE,74,0.0,8.0,48,0.00,,,0.06,Wunderground v.1.15,2013-04-09 23:42:00,
2013-04-09 19:48:00,62.5,45.1,29.96,North,3,0.0,8.0,53,0.00,,,0.06,Wunderground v.1.15,2013-04-09 23:48:00,
2013-04-09 19:54:00,61.7,44.4,29.96,NE,49,1.0,8.0,53,0.00,,,0.06,Wunderground v.1.15,2013-04-09 23:54:00,
2013-04-09 19:59:00,60.6,43.9,29.96,ENE,70,1.0,8.0,54,0.00,,,0.06,Wunderground v.1.15,2013-04-09 23:59:00,
2013-04-09 20:05:00,60.0,44.7,29.96,ENE,68,1.0,8.0,57,0.00,,,0.06,Wunderground v.1.15,2013-04-10 00:05:00,
2013-04-09 20:11:00,58.8,44.9,29.96,ENE,63,0.0,8.0,60,0.00,,,0.06,Wunderground v.1.15,2013-04-10 00:11:00,
2013-04-09 20:17:00,57.9,44.5,29.96,ENE,64,0.0,8.0,61,0.00,,,0.06,Wunderground v.1.15,2013-04-10 00:17:00,
2013-04-09 20:22:00,57.3,44.8,29.96,ENE,64,0.0,8.0,63,0.00,,,0.06,Wunderground v.1.15,2013-04-10 00:22:00,
2013-04-09 20:28:00,56.6,44.6,29.97,ENE,64,0.0,8.0,64,0.00,,,0.06,Wunderground v.1.15,2013-04-10 00:28:00,
2013-04-09 20:33:00,56.1,44.5,29.98,ENE,63,0.0,8.0,65,0.00,,,0.06,Wunderground v.1.15,2013-04-10 00:33:00,
2013-04-09 20:38:00,55.3,44.1,29.98,ENE,64,0.0,8.0,66,0.00,,,0.06,Wunderground v.1.15,2013-04-10 00:38:00,
2013-04-09 20:43:00,55.4,44.6,29.98,ENE,64,0.0,8.0,67,0.00,,,0.06,Wunderground v.1.15,2013-04-10 00:43:00,
2013-04-09 20:49:00,55.5,44.7,29.98,ENE,58,1.0,8.0,67,0.00,,,0.06,Wunderground v.1.15,2013-04-10 00:49:00,
2013-04-09 20:55:00,55.2,44.4,29.99,ENE,58,1.0,8.0,67,0.00,,,0.06,Wunderground v.1.15,2013-04-10 00:55:00,
2013-04-09 21:00:00,54.8,44.4,29.99,ENE,58,1.0,8.0,68,0.00,,,0.06,Wunderground v.1.15,2013-04-10 01:00:00,
2013-04-09 21:05:00,54.6,44.2,29.99,ENE,58,1.0,8.0,68,0.00,,,0.06,Wunderground v.1.15,2013-04-10 01:05:00,
2013-04-09 21:11:00,54.5,43.8,29.99,ENE,58,1.0,8.0,67,0.00,,,0.06,Wunderground v.1.15,2013-04-10 01:11:00,
2013-04-09 21:17:00,54.2,43.5,29.98,NE,56,2.0,8.0,67,0.00,,,0.06,Wunderground v.1.15,2013-04-10 01:17:00,
2013-04-09 21:23:00,53.9,43.6,29.98,ENE,57,1.0,8.0,68,0.00,,,0.06,Wunderground v.1.15,2013-04-10 01:23:00,
2013-04-09 21:28:00,53.5,43.2,29.98,NE,56,0.0,8.0,68,0.00,,,0.06,Wunderground v.1.15,2013-04-10 01:28:00,
2013-04-09 21:34:00,52.9,43.0,29.98,ENE,57,0.0,8.0,69,0.00,,,0.06,Wunderground v.1.15,2013-04-10 01:34:00,
2013-04-09 21:39:00,52.4,43.3,29.97,NE,56,0.0,8.0,71,0.00,,,0.06,Wunderground v.1.15,2013-04-10 01:39:00,
2013-04-09 21:45:00,52.0,43.3,29.98,ENE,57,0.0,8.0,72,0.00,,,0.06,Wunderground v.1.15,2013-04-10 01:45:00,
2013-04-09 21:50:00,51.5,43.5,29.99,SSE,158,0.0,8.0,74,0.00,,,0.06,Wunderground v.1.15,2013-04-10 01:50:00,
2013-04-09 21:55:00,51.1,43.1,29.99,SSE,158,0.0,8.0,74,0.00,,,0.06,Wunderground v.1.15,2013-04-10 01:55:00,
2013-04-09 22:00:00,51.3,43.3,29.99,SSE,158,0.0,8.0,74,0.00,,,0.06,Wunderground v.1.15,2013-04-10 02:00:00,
2013-04-09 22:06:00,51.2,43.5,29.99,SSE,158,0.0,8.0,75,0.00,,,0.06,Wunderground v.1.15,2013-04-10 02:06:00,
2013-04-09 22:11:00,51.2,43.9,29.99,SW,219,0.0,8.0,76,0.00,,,0.06,Wunderground v.1.15,2013-04-10 02:11:00,
2013-04-09 22:16:00,51.5,44.5,29.99,WSW,248,1.0,8.0,77,0.00,,,0.06,Wunderground v.1.15,2013-04-10 02:16:00,
2013-04-09 22:21:00,52.4,45.4,29.99,South,181,1.0,2.0,77,0.00,,,0.06,Wunderground v.1.15,2013-04-10 02:21:00,
2013-04-09 22:27:00,53.1,46.1,29.99,SSW,204,1.0,8.0,77,0.00,,,0.06,Wunderground v.1.15,2013-04-10 02:27:00,
2013-04-09 22:33:00,53.5,46.1,29.99,East,82,1.0,8.0,76,0.00,,,0.06,Wunderground v.1.15,2013-04-10 02:33:00,
2013-04-09 22:38:00,53.6,46.2,29.99,South,173,1.0,8.0,76,0.00,,,0.06,Wunderground v.1.15,2013-04-10 02:38:00,
2013-04-09 22:43:00,53.4,46.4,29.99,SSE,165,1.0,8.0,77,0.00,,,0.06,Wunderground v.1.15,2013-04-10 02:43:00,
2013-04-09 22:48:00,53.1,46.4,29.99,East,81,1.0,8.0,78,0.00,,,0.06,Wunderground v.1.15,2013-04-10 02:48:00,
2013-04-09 22:54:00,52.8,46.8,29.98,SSE,150,2.0,8.0,80,0.00,,,0.06,Wunderground v.1.15,2013-04-10 02:54:00,
2013-04-09 22:59:00,52.5,46.8,29.99,South,170,2.0,8.0,81,0.00,,,0.06,Wunderground v.1.15,2013-04-10 02:59:00,
2013-04-09 23:05:00,51.8,46.2,30.00,South,176,4.0,9.0,81,0.00,,,0.06,Wunderground v.1.15,2013-04-10 03:05:00,
2013-04-09 23:11:00,51.3,46.3,30.00,SE,135,3.0,9.0,83,0.00,,,0.06,Wunderground v.1.15,2013-04-10 03:11:00,
2013-04-09 23:17:00,51.0,46.0,30.00,ESE,114,3.0,9.0,83,0.00,,,0.06,Wunderground v.1.15,2013-04-10 03:17:00,
2013-04-09 23:23:00,50.7,46.0,30.00,SE,135,2.0,5.0,84,0.00,,,0.06,Wunderground v.1.15,2013-04-10 03:23:00,
2013-04-09 23:29:00,50.5,45.8,30.00,South,190,2.0,5.0,84,0.00,,,0.06,Wunderground v.1.15,2013-04-10 03:29:00,
2013-04-09 23:34:00,50.3,45.6,29.99,SE,134,2.0,2.0,84,0.00,,,0.06,Wunderground v.1.15,2013-04-10 03:34:00,
2013-04-09 23:39:00,50.0,45.7,29.98,East,89,2.0,3.0,85,0.00,,,0.06,Wunderground v.1.15,2013-04-10 03:39:00,
2013-04-09 23:44:00,49.7,45.4,29.97,East,89,2.0,4.0,85,0.00,,,0.06,Wunderground v.1.15,2013-04-10 03:44:00,
2013-04-09 23:49:00,49.5,45.2,29.96,SW,229,2.0,7.0,85,0.00,,,0.06,Wunderground v.1.15,2013-04-10 03:49:00,
2013-04-09 23:54:00,49.3,45.3,29.97,SW,224,2.0,5.0,86,0.00,,,0.06,Wunderground v.1.15,2013-04-10 03:54:00,